Home > Weather > Racine > Past weeks

Flag for USA Weather for the Past 2 Weeks in Racine, Wisconsin, USA

Now
55 °F

Sunny.


Feels Like: 52 °F
Forecast: 39 / 55 °F
Wind: 9 mph from Northeast

Location: Batten International Airport

Current Time: May 5, 2016 at 5:02:11 PM

Latest Report: May 5, 2016 at 3:53 PM


Visibility: 10 mi

Pressure: 30.01 "Hg

Humidity: 55%

Dew Point: 39 °F

Location of RacineLocation

Historic Weather in Racine — Graph

°F

Racine Temperature Yesterday

Maximum temperature yesterday: 50 °F (at 12:53 AM)
Minimum temperature yesterday: 41 °F (at 8:53 PM)
Average temperature yesterday: 45 °F

High & Low Weather Summary for the Past Weeks

 TemperatureHumidityPressure
High76 °F (Apr 25, 11:53 AM)97% (Apr 21, 1:53 AM)30.27 "Hg (Apr 21, 1:53 AM)
Low37 °F (Apr 24, 5:53 AM)29% (May 3, 2:53 PM)29.56 "Hg (Apr 25, 5:53 PM)
Average47 °F74%29.97 "Hg
* Reported Apr 20 3:53 PM — May 5 3:53 PM, Racine, Weather by CustomWeather, © 2016

Note: Actual official high and low records may vary slightly from our data, if they occured in-between our weather recording intervals... More about our weather records

Advertising

Racine Weather History for the Previous 24 Hours

Scroll right to see more
 ConditionsComfort  
Time TempWeatherWind HumidityBarometerVisibility
3:53 PM
Thu, May 5
55 °FSunny.9 mph55%30.01 "Hg10 mi
2:53 PM54 °FSunny.9 mph57%30.02 "Hg10 mi
1:53 PM54 °FSunny.14 mph57%30.03 "Hg10 mi
12:53 PM54 °FSunny.15 mph57%30.04 "Hg10 mi
11:53 AM52 °FSunny.13 mph61%30.06 "Hg10 mi
10:53 AM49 °FSunny.17 mph66%30.06 "Hg10 mi
9:53 AM48 °FPassing clouds.18 mph66%30.05 "Hg10 mi
8:53 AM44 °FOvercast.18 mph71%30.04 "Hg10 mi
7:53 AM43 °FOvercast.18 mph71%30.02 "Hg10 mi
6:53 AM42 °FOvercast.17 mph71%30.00 "Hg10 mi
5:53 AM41 °FPassing clouds.15 mph74%29.97 "Hg10 mi
4:53 AM41 °FClear.16 mph70%29.95 "Hg10 mi
3:53 AM41 °FPassing clouds.14 mph70%29.93 "Hg10 mi
2:53 AM42 °FMostly cloudy.17 mph71%29.93 "Hg10 mi
1:53 AM42 °FOvercast.17 mph71%29.93 "Hg10 mi
12:53 AM42 °FPassing clouds.18 mph73%29.93 "Hg10 mi
11:53 PM
Wed, May 4
42 °FMostly cloudy.17 mph73%29.93 "Hg10 mi
10:53 PM41 °FPassing clouds.15 mph76%29.93 "Hg10 mi
9:53 PM41 °FClear.16 mph76%29.93 "Hg10 mi
8:53 PM41 °FSunny.16 mph76%29.91 "Hg10 mi
7:53 PM42 °FPartly sunny.16 mph73%29.89 "Hg10 mi
6:53 PM42 °FPartly sunny.13 mph73%29.88 "Hg10 mi
5:53 PM44 °FMore clouds than sun.17 mph71%29.86 "Hg10 mi
Weather by CustomWeather, © 2016

See weather overviewHow to use our weather pages